[[{"header":{"parameterUnit":"m.s-1","parameterCategory":1,"la1":30.2991,"la2":30.254,"lo1":-89.0895,"lo2":-89.0444,"dy":0.0017,"dx":0.0017,"nx":28,"ny":28,"refTime":"2024-04-11T03:00:00:Z","depth":0,"parameterNumber":2,"parameterNumberName":"U-component_of_WINDS"},"data":[0,0,0,0,0,0,0,0,0,0,0,0,0,0,0,0,0,0,0,0,0,0,0,0,0,0,0,0,0,0,0,0,0,0,0,0,0,0,0,0,0,0,0,0,0,0,0,0,0,0,0,0,0,0,0,0,0,0,-5.6342,-5.6342,0,-5.638,-5.638,-5.6381,-5.6311,-5.6308,-5.6306,-5.6304,-5.6347,-5.635,-5.6354,0,0,0,0,0,0,0,0,0,0,0,0,0,-5.6214,-5.6217,-5.6341,-5.6342,-5.6342,-5.638,-5.638,-5.6381,-5.6311,-5.6308,-5.6305,-5.6303,-5.6346,-5.635,-5.6354,0,0,0,0,0,0,0,0,0,0,0,0,0,-5.6263,-5.6217,-5.6341,-5.6312,-5.631,-5.638,-5.638,-5.6381,-5.6312,-5.6308,-5.6305,-5.6301,-5.6345,-5.635,-5.6355,-5.6456,0,0,-5.637,-5.6372,0,0,0,0,0,0,0,0,-5.626,-5.6267,-5.6316,-5.6314,-5.6312,-5.6337,-5.6351,-5.6406,-5.6313,-5.6311,-5.6304,-5.63,-5.6347,-5.6352,-5.6367,-5.6458,-5.646,-5.637,-5.6373,-5.6376,-5.6377,0,0,0,0,0,0,0,-5.6257,-5.6265,-5.6357,-5.6317,-5.6314,-5.6299,-5.6302,-5.6361,-5.6348,-5.6311,-5.6306,-5.6311,-5.6345,-5.6362,-5.6367,-5.6461,-5.637,-5.6375,-5.6378,-5.638,-5.664,-5.6643,0,0,0,0,0,0,-5.6256,-5.6263,-5.6356,-5.6358,-5.6277,-5.6304,-5.6308,-5.6332,-5.6348,-5.6346,-5.6314,-5.6308,-5.6355,-5.6361,-5.6368,-5.6487,-5.6376,-5.638,-5.6383,-5.6636,-5.664,-5.6645,0,0,0,0,0,0,-5.6254,-5.6265,-5.6354,-5.6309,-5.6319,-5.631,-5.6339,-5.6335,-5.6351,-5.635,-5.6348,-5.6333,-5.6353,-5.6361,-5.6435,-5.6488,-5.6383,-5.6387,-5.6631,-5.6637,-5.6642,-5.6726,0,0,0,0,0,0,-5.625,-5.6265,-5.6301,-5.631,-5.6322,-5.6418,-5.6342,-5.6338,-5.636,-5.6352,-5.6367,-5.6366,-5.635,-5.6428,-5.644,-5.6493,-5.6391,-5.6626,-5.6634,-5.6641,-5.6718,-5.6734,-5.6747,0,0,0,0,0,-5.6246,-5.6324,-5.6303,-5.6315,-5.6367,-5.6421,-5.6428,-5.6406,-5.6364,-5.6402,-5.6402,-5.6366,-5.6482,-5.6436,-5.6449,-5.6504,-5.6623,-5.6632,-5.664,-5.6712,-5.6731,-5.6747,0,0,0,0,0,0,-5.6321,-5.6324,-5.6301,-5.6384,-5.6403,-5.6409,-5.6455,-5.6427,-5.6459,-5.645,-5.6424,-5.6429,-5.6507,-5.6514,-5.6463,-5.6604,-5.6545,-5.6557,-5.6595,-5.6613,-5.6628,-5.6622,-5.6395,0,0,0,0,0,-5.6347,-5.6389,-5.6391,-5.6464,-5.6474,-5.6464,-5.6486,-5.6469,-5.6487,-5.6495,-5.65,-5.6521,-5.6562,-5.6589,-5.6627,-5.6722,-5.6724,-5.6767,-5.6781,-5.6793,-5.6802,-5.6853,-5.6871,-5.6673,-5.6673,-5.6673,0,0,-5.6401,-5.6409,-5.6436,-5.6479,-5.6491,-5.6536,-5.647,-5.6521,-5.6554,-5.6503,-5.6571,-5.6577,-5.6599,-5.6684,-5.6721,-5.6691,-5.6858,-5.6804,-5.6814,-5.6816,-5.6864,-5.6882,-5.6899,-5.6679,-5.6678,-5.6677,0,0,-5.6522,-5.6532,-5.6593,-5.6608,-5.6627,-5.6621,-5.6636,-5.6648,-5.6649,-5.6718,-5.668,-5.6723,-5.6794,-5.681,-5.6829,-5.6962,-5.693,-5.6976,-5.7049,-5.7099,-5.7115,-5.7128,-5.7174,-5.719,-5.6986,-5.6986,-5.6987,0,-5.6586,-5.665,-5.6629,-5.6682,-5.6702,-5.6659,-5.6722,-5.6738,-5.677,-5.6786,-5.6753,-5.6842,-5.6855,-5.6942,-5.6975,-5.6992,-5.7009,-5.6971,-5.7114,-5.7128,-5.714,-5.7183,-5.72,-5.6991,-5.6991,-5.699,-5.699,0,-5.6728,-5.6774,-5.6822,-5.6852,-5.6879,-5.6937,-5.6926,-5.6957,-5.694,-5.6937,-5.701,-5.7024,-5.7063,-5.7085,-5.7068,-5.7171,-5.7152,-5.7118,-5.7057,-5.7164,-5.7204,-5.722,-5.6999,-5.6997,-5.6995,-5.6994,0,0,-5.6889,-5.6911,-5.6928,-5.6942,-5.6963,-5.6999,-5.7058,-5.7096,-5.7122,-5.7148,-5.7195,-5.726,-5.7228,-5.7249,-5.7236,-5.7281,-5.7384,-5.7241,-5.7241,-5.7264,-5.7497,-5.7519,-5.7538,-5.7366,-5.7369,-5.7371,-5.7494,0,-5.7006,-5.7102,-5.7087,-5.7182,-5.7224,-5.7188,-5.7239,-5.7259,-5.726,-5.7299,-5.7302,-5.7346,-5.7303,-5.7315,-5.7358,-5.7362,-5.7429,-5.7354,-5.7409,-5.7411,-5.7399,-5.7559,-5.7582,-5.7696,-5.751,-5.7513,-5.7514,0,-5.7153,-5.7183,-5.7281,-5.7297,-5.7315,-5.736,-5.7395,-5.7433,-5.7456,-5.7455,-5.7481,-5.746,-5.7521,-5.7464,-5.7548,-5.7497,-5.752,-5.7527,-5.7531,-5.753,-5.7465,-5.756,-5.7733,-5.7748,-5.7539,-5.7537,-5.7536,0,-5.7257,-5.7323,-5.7389,-5.7403,-5.7425,-5.7458,-5.7469,-5.7489,-5.7514,-5.7547,-5.7563,-5.7604,-5.7624,-5.7658,-5.765,-5.761,-5.7736,-5.7678,-5.7735,-5.7735,-5.7757,-5.7755,-5.7932,-5.7782,-5.7782,-5.7781,-5.7781,0,-5.7385,-5.7446,-5.7436,-5.7476,-5.7545,-5.753,-5.7598,-5.7606,-5.7625,-5.7668,-5.7643,-5.7684,-5.7673,-5.7716,-5.7712,-5.7781,-5.7792,-5.7793,-5.7789,-5.7791,-5.7791,-5.7802,-5.7792,-5.7786,-5.7785,-5.7784,-5.7783,0,-5.7509,-5.7505,-5.7575,-5.7591,-5.7597,-5.7646,-5.7661,-5.77,-5.7703,-5.7758,-5.777,-5.7773,-5.7822,-5.782,-5.7875,-5.7873,-5.7957,-5.7948,-5.7948,-5.7944,-5.7999,-5.7993,-5.8185,-5.8209,-5.8048,-5.805,-5.8051,0,-5.7588,-5.7633,-5.7655,-5.7681,-5.7694,-5.7737,-5.7763,-5.7753,-5.7781,-5.7814,-5.785,-5.7897,-5.7932,-5.8013,-5.8021,-5.8065,-5.8053,-5.8118,-5.8059,-5.806,-5.805,-5.8045,-5.8049,-5.8127,-5.8129,-5.8131,-5.8132,0,-5.7728,-5.7725,-5.7761,-5.7799,-5.783,-5.7859,-5.7886,-5.791,-5.7903,-5.7937,-5.7985,-5.8014,-5.8071,-5.8118,-5.816,-5.8174,-5.8152,-5.8152,-5.8167,-5.8166,-5.8162,-5.8162,-5.7974,-5.8146,-5.8144,-5.8143,-5.8143,-5.8142,-5.7829,-5.7867,-5.7889,-5.7931,-5.7951,-5.7978,-5.8015,-5.8023,-5.8063,-5.8107,-5.8101,-5.8156,-5.8183,-5.8237,-5.8256,-5.8301,-5.8277,-5.83,-5.8304,-5.8309,-5.8313,-5.8161,-5.8309,-5.8309,-5.8308,-5.8308,-5.8308,0,-5.7963,-5.7977,-5.8016,-5.8054,-5.8089,-5.8067,-5.8097,-5.8127,-5.8175,-5.8202,-5.8238,-5.8296,-5.8343,-5.8357,-5.8402,-5.8435,-5.8427,-5.8447,-5.8442,-5.8445,-5.8333,-5.8313,-5.8454,-5.8454,-5.8453,-5.8453,-5.8453,-5.8453,-5.8037,-5.8101,-5.8102,-5.8177,-5.8191,-5.8242,-5.8261,-5.8287,-5.8308,-5.8372,-5.841,-5.842,-5.8442,-5.849,-5.8533,-5.8536,-5.8552,-5.8576,-5.8575,-5.8468,-5.8453,-5.8439,-5.842,-5.8581,-5.8581,-5.8684,-5.8685,-5.8685]},{"header":{"parameterUnit":"m.s-1","parameterCategory":1,"la1":30.2991,"la2":30.254,"lo1":-89.0895,"lo2":-89.0444,"dy":0.0017,"dx":0.0017,"nx":28,"ny":28,"refTime":"2024-04-11T03:00:00:Z","depth":0,"parameterNumber":3,"parameterNumberName":"V-component_of_WINDS"},"data":[0,0,0,0,0,0,0,0,0,0,0,0,0,0,0,0,0,0,0,0,0,0,0,0,0,0,0,0,0,0,0,0,0,0,0,0,0,0,0,0,0,0,0,0,0,0,0,0,0,0,0,0,0,0,0,0,0,0,4.398,4.3982,0,4.411,4.4111,4.4113,4.4154,4.4153,4.4153,4.4152,4.4279,4.4283,4.4287,0,0,0,0,0,0,0,0,0,0,0,0,0,4.3765,4.3768,4.398,4.3982,4.3984,4.4109,4.4111,4.4113,4.4154,4.4153,4.4153,4.4152,4.4278,4.4282,4.4287,0,0,0,0,0,0,0,0,0,0,0,0,0,4.3872,4.377,4.398,4.4019,4.4024,4.4109,4.4111,4.4113,4.4154,4.4153,4.4152,4.4152,4.4276,4.4282,4.4288,4.4341,0,0,4.4305,4.4308,0,0,0,0,0,0,0,0,4.3866,4.388,4.4012,4.4017,4.4022,4.4115,4.4082,4.4189,4.4154,4.4105,4.4152,4.4151,4.4225,4.4235,4.4261,4.4347,4.4352,4.4306,4.4309,4.4312,4.4314,0,0,0,0,0,0,0,4.3859,4.3875,4.4031,4.4014,4.402,4.4029,4.4043,4.4102,4.4168,4.4109,4.4112,4.4127,4.4227,4.4255,4.4264,4.4354,4.4306,4.4311,4.4315,4.4317,4.449,4.4491,0,0,0,0,0,0,4.3845,4.3868,4.4027,4.4035,4.3941,4.4034,4.405,4.4086,4.4167,4.4179,4.4128,4.4129,4.4245,4.4257,4.4268,4.4336,4.4312,4.4317,4.4321,4.4489,4.4491,4.4492,0,0,0,0,0,0,4.3841,4.3859,4.4022,4.3953,4.3974,4.4038,4.4079,4.4089,4.4117,4.4182,4.4193,4.4144,4.4245,4.426,4.4323,4.4341,4.432,4.4325,4.4488,4.449,4.4491,4.4471,0,0,0,0,0,0,4.3834,4.3857,4.3879,4.3953,4.3978,4.4076,4.408,4.4092,4.4127,4.413,4.42,4.4211,4.4246,4.4314,4.4329,4.4349,4.433,4.4487,4.4489,4.4491,4.4471,4.4472,4.4473,0,0,0,0,0,4.3826,4.3867,4.388,4.3899,4.4007,4.4077,4.4091,4.4131,4.4129,4.415,4.4192,4.4209,4.4337,4.432,4.4337,4.4359,4.4486,4.4488,4.449,4.447,4.4472,4.4473,0,0,0,0,0,0,4.3792,4.3878,4.3893,4.3959,4.4011,4.4084,4.4112,4.4132,4.4184,4.4183,4.423,4.4246,4.4305,4.4338,4.4318,4.4415,4.4412,4.4418,4.439,4.4393,4.4394,4.4384,4.4335,0,0,0,0,0,4.3792,4.3843,4.3915,4.3966,4.3992,4.4048,4.4079,4.4107,4.4161,4.4182,4.4229,4.4279,4.4331,4.4364,4.4415,4.4476,4.4492,4.45,4.4501,4.4502,4.4506,4.454,4.4544,4.45,4.45,4.45,0,0,4.3793,4.3846,4.3875,4.3961,4.4004,4.4054,4.4065,4.4118,4.4155,4.419,4.4252,4.4288,4.4347,4.4409,4.4439,4.4439,4.4522,4.4505,4.4505,4.4509,4.4543,4.4547,4.4551,4.4501,4.4501,4.4501,0,0,4.3819,4.3866,4.3914,4.3957,4.4023,4.406,4.4071,4.4142,4.4167,4.4231,4.4258,4.4302,4.4391,4.4432,4.4465,4.4508,4.4525,4.4523,4.453,4.4563,4.4566,4.4569,4.4584,4.4589,4.4528,4.4528,4.4528,0,4.3811,4.389,4.3935,4.3987,4.4024,4.4059,4.4107,4.4147,4.4225,4.4248,4.4248,4.436,4.4403,4.4475,4.4486,4.4511,4.4524,4.4515,4.4562,4.4566,4.457,4.4584,4.459,4.4527,4.4527,4.4527,4.4527,0,4.3876,4.393,4.3961,4.4038,4.4078,4.4127,4.4179,4.4214,4.4237,4.4274,4.4338,4.4391,4.4453,4.4473,4.4496,4.4548,4.4546,4.4554,4.4551,4.4573,4.4587,4.4593,4.4526,4.4526,4.4526,4.4527,0,0,4.3883,4.3986,4.3996,4.4031,4.4107,4.4149,4.42,4.4263,4.4291,4.4344,4.4387,4.4462,4.4469,4.4506,4.4534,4.4563,4.4593,4.4567,4.4569,4.4569,4.4653,4.4646,4.4652,4.4606,4.4607,4.4608,4.4648,0,4.3919,4.4013,4.4056,4.413,4.418,4.4215,4.4259,4.4309,4.4345,4.4391,4.443,4.4482,4.4489,4.4511,4.4542,4.4583,4.461,4.4581,4.4644,4.4646,4.4627,4.4659,4.4652,4.4687,4.4654,4.4655,4.4655,0,4.3973,4.4028,4.4108,4.4178,4.42,4.4239,4.4301,4.4345,4.4402,4.4426,4.4468,4.4496,4.4549,4.4544,4.4617,4.4596,4.4625,4.4649,4.4651,4.4657,4.4651,4.4665,4.47,4.4704,4.4665,4.4664,4.4663,0,4.3969,4.4063,4.4123,4.4152,4.4235,4.4262,4.4297,4.4354,4.439,4.4443,4.4466,4.4524,4.4555,4.4598,4.464,4.4633,4.4709,4.4708,4.4729,4.4728,4.4742,4.474,4.478,4.4762,4.4762,4.4762,4.4762,0,4.4004,4.4051,4.4122,4.4159,4.4212,4.4261,4.4312,4.435,4.44,4.4443,4.4477,4.4517,4.457,4.4616,4.4649,4.4704,4.4718,4.4738,4.4745,4.4734,4.4731,4.4752,4.475,4.4763,4.4763,4.4763,4.4763,0,4.4008,4.4058,4.4125,4.4199,4.4219,4.4255,4.4318,4.4354,4.4392,4.4446,4.4462,4.4521,4.4577,4.4623,4.4696,4.4718,4.4775,4.4785,4.4756,4.476,4.4778,4.4776,4.4832,4.4841,4.4818,4.4818,4.4818,0,4.4026,4.4064,4.4142,4.4175,4.421,4.4262,4.4299,4.4347,4.4384,4.4452,4.448,4.4539,4.4589,4.4676,4.4724,4.478,4.4791,4.4807,4.4799,4.4787,4.479,4.4787,4.479,4.4807,4.4807,4.4807,4.4807,0,4.4053,4.4076,4.4129,4.419,4.4233,4.4283,4.4334,4.4358,4.4416,4.4455,4.4514,4.4553,4.4628,4.4686,4.4747,4.4782,4.4804,4.4809,4.4817,4.4805,4.4786,4.4796,4.4757,4.4807,4.4807,4.4807,4.4807,4.4807,4.4064,4.4099,4.416,4.4217,4.4261,4.4308,4.4346,4.4389,4.444,4.4506,4.4531,4.4591,4.4647,4.4732,4.4768,4.4814,4.4817,4.4828,4.483,4.4832,4.483,4.478,4.4826,4.4826,4.4826,4.4826,4.4826,0,4.4092,4.4133,4.4186,4.4257,4.4301,4.432,4.4378,4.4413,4.4466,4.4518,4.4567,4.4634,4.469,4.4743,4.4802,4.4829,4.484,4.4842,4.484,4.4847,4.4825,4.4812,4.4832,4.4832,4.4832,4.4832,4.4832,4.4832,4.4112,4.4172,4.4202,4.4283,4.4324,4.4384,4.4415,4.4458,4.45,4.4574,4.4622,4.4657,4.4709,4.4771,4.4823,4.4837,4.4857,4.4856,4.4873,4.485,4.4849,4.4848,4.4836,4.486,4.486,4.4891,4.4891,4.4892]}]]